TIME,DELAY(SENSOR),PRES,OXYGEN,RAWTEMP,T(OPTODE),TCPHASE,FLUOR,BETA(BETA700),BETA(BETA412),BETA(BETA440),CDOM,C(CSC),ED(ED412.20),ED(ED444.00),ED(ED489.60),ED(ED554.30),LU(LU412.10),LU(LU443.90),LU(LU489.70),LU(LU554.70),COMP,TILTX,TILTY,CHECK
1356663663,5809,899.9400024414062000,34.4986114501953100,562.7733764648438000,4.3999099731445310,56.3874588012695300,55,98,99,78,83,15554,0,0,0,0,2147123474,2147774701,2147572617,2147569014,568,2,13,35301
1356667259,5809,969.0700073242188000,40.6949081420898440,570.5485229492188000,4.1585140228271480,55.5156211853027340,56,98,100,78,82,15553,0,0,0,0,2147123986,2147777837,2147572205,2147570249,3352,3,13,49778
1356670859,5807,980.5900268554688000,41.9347305297851560,571.5825195312500000,4.1263751983642580,55.3455696105957000,56,96,100,78,81,15552,0,0,0,0,2147127094,2147777481,2147570688,2147568301,3531,3,13,14090
1356674459,5808,990.0100097656250000,41.7341384887695300,571.5625000000000000,4.1269950866699220,55.3777694702148440,56,99,101,77,81,15554,0,0,0,0,2147126272,2147775853,2147574107,2147568329,3408,2,13,27122
1356678059,5810,996.6500244140625000,41.7382507324218750,571.4611816406250000,4.1301441192626950,55.3714790344238300,55,98,100,78,81,15553,0,0,0,0,2147123638,2147774912,2147579364,2147568475,97,3,13,60680
1356681659,5810,1001.2199707031250000,41.1517906188964840,570.4644775390625000,4.1611227989196780,55.4522514343261700,55,99,99,78,83,15549,0,0,0,0,2147123702,2147772608,2147574217,2147568722,3483,2,13,55583
1356685259,5810,999.5399780273438000,39.4789085388183600,569.5095214843750000,4.1908040046691895,55.6849098205566400,56,98,102,79,83,15551,0,0,0,0,2147125741,2147775945,2147569746,2147568246,3230,2,13,53933
1356688859,5811,1006.4299926757812000,40.9582405090332000,570.8928833007812000,4.1478080749511720,55.4838294982910160,55,97,100,78,82,15552,0,0,0,0,2147124489,2147772635,2147572288,2147572891,142,3,13,65341
1356692459,5811,1004.5499877929688000,39.8230895996093750,570.3524780273438000,4.1646060943603520,55.6438102722168000,55,98,100,78,83,15550,0,0,0,0,2147124882,2147775588,2147572306,2147569033,79,3,13,45510
1356696059,5812,1002.2999877929688000,41.0932693481445300,571.4251098632812000,4.1312661170959470,55.4661293029785160,55,99,101,77,83,15550,0,0,0,0,2147126006,2147777344,2147566848,2147570761,3566,3,13,46722
1356699659,5810,998.5399780273438000,41.2701416015625000,572.0396728515625000,4.1121602058410645,55.4469718933105500,55,99,101,78,82,15543,0,0,0,0,2147121782,2147771419,2147570569,2147569472,101,2,13,10756
1356703259,5808,998.8099975585938000,41.3232002258300800,572.3386230468750000,4.1028628349304200,55.4414100646972660,55,101,101,79,81,15546,0,0,0,0,2147124269,2147776804,2147571876,2147569124,3475,2,13,48628
1356706859,5808,1002.0599975585938000,41.8873481750488300,572.3272094726562000,4.1032180786132810,55.3634300231933600,55,98,99,79,81,15552,0,0,0,0,2147125019,2147776292,2147569636,2147571163,28,2,13,17435
1356710459,5811,1002.7100219726562000,41.8916587829589840,572.2830200195312000,4.1045928001403810,55.3631210327148440,54,98,100,80,82,15546,0,0,0,0,2147123611,2147775414,2147567241,2147571757,3582,2,13,50421
1356714059,5809,997.2800292968750000,41.6137199401855500,572.4641113281250000,4.0989608764648440,55.4059600830078100,54,104,102,80,81,15545,0,0,0,0,2147123382,2147776530,2147571364,2147569252,491,2,13,27054
1356717659,5810,1004.2500000000000000,41.7786216735839840,572.4359130859375000,4.0998377799987790,55.3778495788574200,54,98,102,78,83,15546,0,0,0,0,2147123264,2147771373,2147573449,2147570377,1214,2,13,64105
1356721259,5807,1001.2999877929688000,41.4220199584960940,572.1790161132812000,4.1078262329101560,55.4310302734375000,55,100,99,79,82,15547,0,0,0,0,2147122925,2147776365,2147576758,2147570806,424,2,13,57518
1356724859,5812,1005.5100097656250000,41.4549903869628900,572.0858764648438000,4.1107230186462400,55.4214897155761700,55,97,100,78,83,15547,0,0,0,0,2147124315,2147774354,2147571958,2147568192,3553,2,13,288
1356728459,5809,1010.9899902343750000,40.9614410400390600,571.2819213867188000,4.1357169151306150,55.4854507446289060,55,97,100,78,82,15548,0,0,0,0,2147125037,2147772708,2147574089,2147567232,195,2,13,36360
1356732059,5809,1009.8200073242188000,41.0120887756347660,572.0291137695312000,4.1124901771545410,55.4884300231933600,56,101,100,78,82,15550,0,0,0,0,2147121042,2147771126,2147577746,2147568466,107,2,13,59992
1356735659,5812,1005.8400268554688000,41.7394104003906250,572.4899902343750000,4.0981578826904300,55.3824310302734400,55,97,100,78,82,15546,0,0,0,0,2147121746,2147774016,2147576758,2147567094,23,3,13,5958
1356739259,5810,999.6300048828125000,41.7885894775390600,572.4254150390625000,4.1001658439636230,55.3766098022460940,55,98,101,79,83,15545,0,0,0,0,2147123958,2147775734,2147574235,2147573851,732,3,13,65318
1356742859,5811,1003.4699707031250000,41.7987098693847660,572.4688720703125000,4.0988140106201170,55.3768615722656250,55,98,99,78,83,15546,0,0,0,0,2147126409,2147776886,2147573074,2147570541,84,3,13,61429
1356746459,5810,1004.0000000000000000,42.1843986511230500,572.8306274414062000,4.0875658988952640,55.3244209289550800,54,97,101,78,82,15546,0,0,0,0,2147123858,2147777371,2147575552,2147569600,536,3,13,21285
1356750059,5810,1003.7999877929688000,42.0434608459472660,573.3060302734375000,4.0727791786193850,55.3473091125488300,54,99,100,78,82,15544,0,0,0,0,2147124836,2147777974,2147574308,2147569371,3153,3,13,63955
1356753659,5809,1003.3200073242188000,42.1741905212402340,573.0701293945312000,4.0801157951354980,55.3285408020019500,55,98,100,78,82,15544,0,0,0,0,2147125888,2147772598,2147577289,2147568393,3392,2,13,9354
1356757259,5809,1010.1799926757812000,42.4601287841796900,573.0825195312500000,4.0797328948974610,55.2881507873535160,56,98,100,78,81,15544,0,0,0,0,2147126363,2147775652,2147575716,2147569325,3159,2,13,6122
1356760859,5810,1009.7000122070312000,41.9319610595703100,572.4768066406250000,4.0985660552978520,55.3599205017089840,55,99,102,78,82,15541,0,0,0,0,2147125065,2147777353,2147576886,2147567780,203,3,13,14348
1356764459,5810,1011.3200073242188000,41.2640190124511700,571.6823120117188000,4.1232719421386720,55.4471092224121100,55,101,100,78,82,15541,0,0,0,0,2147122870,2147774573,2147573293,2147569115,373,3,13,1727
1356768059,5809,1023.4799804687500000,41.0330200195312500,571.2656250000000000,4.1362271308898930,55.4755592346191400,54,99,101,78,82,15533,0,0,0,0,2147124644,2147776859,2147572489,2147569462,3217,2,13,10607
1356771659,5810,1021.5000000000000000,41.1395606994628900,571.2484741210938000,4.1367549896240230,55.4586601257324200,55,98,100,78,83,15538,0,0,0,0,2147126592,2147774528,2147572123,2147569097,3290,2,13,1803
1356775259,5809,1011.7999877929688000,40.4801292419433600,571.4375000000000000,4.1308798789978030,55.5552406311035160,54,101,100,77,83,15539,0,0,0,0,2147124690,2147778048,2147572544,2147571913,288,2,13,10335
1356778859,5809,1015.4400024414062000,40.7334899902343750,571.8671264648438000,4.1175270080566410,55.5281105041503900,56,97,101,78,81,15539,0,0,0,0,2147123949,2147774500,2147572278,2147568429,554,3,13,44975
1356782459,5807,1014.9899902343750000,40.5797004699707000,572.1663818359375000,4.1082167625427250,55.5540199279785160,55,99,100,77,83,15540,0,0,0,0,2147123108,2147778788,2147576603,2147568969,174,3,13,6445
1356786059,5811,1011.6300048828125000,41.1280288696289060,572.5648803710938000,4.0958251953125000,55.4781608581543000,55,98,100,77,83,15539,0,0,0,0,2147125851,2147772022,2147575497,2147565979,3572,2,13,27932
1356789659,5811,1006.3599853515625000,41.5065193176269500,572.8018798828125000,4.0884571075439450,55.4206008911132800,55,96,100,78,83,15540,0,0,0,0,2147125293,2147773467,2147573668,2147568310,3258,2,13,37554
1356793259,5809,1008.1799926757812000,41.7553291320800800,572.6918945312500000,4.0918769836425780,55.3830413818359400,55,98,101,78,82,15539,0,0,0,0,2147123885,2147775067,2147571264,2147567168,146,3,13,19839
1356796859,5812,1008.3800048828125000,42.1284408569335940,573.3038940429688000,4.0728440284729000,55.3356895446777340,55,100,99,78,82,15539,0,0,0,0,2147127771,2147777462,2147572004,2147562093,75,3,13,1225
1356800459,5809,1007.7199707031250000,42.2486000061035160,573.2807006835938000,4.0735659599304200,55.3175010681152340,56,99,100,78,82,15537,0,0,0,0,2147124992,2147773184,2147572690,2147569462,492,2,13,11204
1356804059,5810,1006.7899780273438000,41.8181495666503900,573.4323120117188000,4.0688509941101070,55.3850898742675800,55,98,101,78,82,15539,0,0,0,0,2147124297,2147778313,2147573385,2147568969,115,3,13,33567
1356807659,5810,1003.6199951171875000,41.7478408813476560,573.5714721679688000,4.0645198822021480,55.3958396911621100,55,97,101,77,82,15538,0,0,0,0,2147125933,2147775158,2147569508,2147568365,35,3,13,61819
1356808556,5810,1006.4799804687500000,41.4447593688964840,573.7440185546875000,4.0591559410095215,55.4438591003418000,54,97,100,79,83,15536,0,0,0,0,2147123602,2147777115,2147574930,2147567323,3307,2,13,41641
